Volver al catálogo

COSMOS 1275 DEB

ActivoPO
NORAD 42176·DEBRIS·🇷🇺 Russia

Lanzado Jun 4, 1981 desde Plesetsk Cosmodrome

Loading…

Próximos Pases (próximas 24 horas)

TLE

EnvejeciendoSource: Space-Track

Época: Sep 3, 2026, 14:22 UTC

1 42176U 81053SQ  26246.59906427  .00000498  00000-0  49810-3 0  9995
2 42176  82.9022 356.9766 0105745 136.4301 283.4891 13.73460243639766

Sigue COSMOS 1275 DEB en tiempo real con AllMySat

Download on the App Store